Weather History for KCEZ - April, 2013

Change the Weather History Date:

Thursday, April 18, 2013

  Actual Average Record
Temperature  
Mean Temperature 32 °F 48 °F  
Max Temperature 44 °F 65 °F 77 °F (2001)
Min Temperature 19 °F 30 °F 19 °F (2013)
Degree Days  
Heating Degree Days 33 17  
Month to date heating degree days 347 354  
Since 1 July heating degree days 5945 5884  
Cooling Degree Days 0 0  
Month to date cooling degree days 0 0  
Year to date cooling degree days 0 0  
Moisture  
Dew Point 6 °F    
Average Humidity 37    
Maximum Humidity 56    
Minimum Humidity 17    
Precipitation  
Precipitation T in 0.05 in 0.02 in (2011)
Month to date precipitation 0.07 0.72  
Year to date precipitation 2.58 3.80  
Sea Level Pressure  
Sea Level Pressure 30.16 in    
Wind  
Wind Speed 9 mph (NNW)    
Max Wind Speed 23 mph    
Max Gust Speed 35 mph    
Visibility 10 miles    
Events      
T = Trace of Precipitation, MM = Missing Value Source: NWS Daily Summary

Daily Weather History Graph

Daily Weather History Graph

Search for Another Location

Airport or City:

Trip Planner

Search our weather history database for the weather conditions in past years. The results will help you decide how hot, cold, wet, or windy it might be!

Date:

Astronomy

Apr. 18, 2013 Rise Set
Actual Time 6:35 AM MDT 7:52 PM MDT
Civil Twilight 6:08 AM MDT 8:19 PM MDT
Nautical Twilight 5:35 AM MDT 8:52 PM MDT
Astronomical Twilight 5:02 AM MDT 9:26 PM MDT
Moon 12:51 PM MDT (4/18) 2:07 AM MDT (4/18)
Length of Visible Light 14h 11m
Length of Day
13h 17m
First Quarter, 52% of the Moon is Illuminated
Apr 18
First Quarter
Apr 25
Full
May 2
Last Quarter
May 9
New
May 17
First Quarter

Hourly Weather History & Observations

Time (MDT) Temp. Windchill Dew Point Humidity Pressure Visibility Wind Dir Wind Speed Gust Speed Precip Events Conditions
12:53 AM 26.1 °F 19.4 °F 9.0 °F 49% 30.06 in 10.0 mi NW 5.8 mph - N/A   Clear
1:53 AM 23.0 °F 18.4 °F 8.1 °F 53% 30.07 in 10.0 mi NNW 3.5 mph - N/A   Clear
2:53 AM 24.1 °F 17.0 °F 6.1 °F 46% 30.09 in 10.0 mi WNW 5.8 mph - N/A   Clear
3:53 AM 21.9 °F 17.2 °F 6.1 °F 51% 30.07 in 10.0 mi SW 3.5 mph - N/A   Clear
4:53 AM 21.9 °F - 6.1 °F 51% 30.09 in 10.0 mi Calm Calm - N/A   Clear
5:53 AM 23.0 °F 17.0 °F 8.1 °F 53% 30.09 in 10.0 mi NNW 4.6 mph - N/A   Clear
6:53 AM 19.9 °F - 7.0 °F 57% 30.12 in 10.0 mi Calm Calm - N/A   Clear
7:53 AM 27.0 °F 21.6 °F 10.0 °F 49% 30.13 in 10.0 mi ENE 4.6 mph - N/A   Clear
8:53 AM 30.9 °F 22.2 °F 10.0 °F 42% 30.14 in 10.0 mi North 10.4 mph 23.0 mph N/A   Clear
9:53 AM 33.1 °F 22.6 °F 8.1 °F 35% 30.15 in 10.0 mi North 16.1 mph 27.6 mph N/A   Clear
10:53 AM 35.1 °F 25.9 °F 6.1 °F 30% 30.15 in 10.0 mi North 13.8 mph 24.2 mph N/A   Mostly Cloudy
11:53 AM 36.0 °F 28.5 °F 5.0 °F 27% 30.15 in 10.0 mi North 10.4 mph 23.0 mph N/A   Mostly Cloudy
12:53 PM 39.0 °F 31.8 °F 6.1 °F 26% 30.15 in 10.0 mi NNW 11.5 mph 25.3 mph N/A   Mostly Cloudy
1:53 PM 41.0 °F 32.5 °F 5.0 °F 23% 30.15 in 10.0 mi NW 17.3 mph 26.5 mph N/A   Scattered Clouds
2:53 PM 42.1 °F 35.2 °F 8.1 °F 25% 30.16 in 10.0 mi NNW 12.7 mph 26.5 mph 0.00 in   Partly Cloudy
3:53 PM 43.0 °F 36.8 °F 6.1 °F 22% 30.16 in 10.0 mi NNW 11.5 mph 20.7 mph N/A   Scattered Clouds
4:53 PM 42.1 °F 34.2 °F 5.0 °F 22% 30.17 in 10.0 mi NNE 16.1 mph 26.5 mph N/A   Scattered Clouds
5:53 PM 43.0 °F 36.8 °F 1.0 °F 17% 30.18 in 10.0 mi NNW 11.5 mph 25.3 mph N/A   Clear
6:53 PM 41.0 °F 32.8 °F -0.0 °F 18% 30.21 in 10.0 mi NW 16.1 mph 25.3 mph N/A   Clear
7:53 PM 36.0 °F 28.0 °F 1.9 °F 24% 30.23 in 10.0 mi North 11.5 mph 18.4 mph N/A   Clear
8:53 PM 34.0 °F 28.0 °F 3.9 °F 28% 30.25 in 10.0 mi North 6.9 mph - N/A   Clear
9:53 PM 28.0 °F 24.2 °F 3.0 °F 34% 30.29 in 10.0 mi East 3.5 mph - N/A   Clear
10:53 PM 24.1 °F 19.7 °F 3.0 °F 40% 30.30 in 10.0 mi NE 3.5 mph - N/A   Clear
11:53 PM 21.0 °F 16.2 °F 3.9 °F 48% 30.32 in 10.0 mi ENE 3.5 mph - N/A   Clear